User: anonymous
Location: Unspecified
(0.0000°N, 0.0000°E)
Time: 00:15:35
(UTC+00:00)
Language:

OPTUS D2 - Orbit

View from above orbital plane
View from above orbital plane
View from above satellite
View from above satellite

Ground track
Ground track

The orbit data is extracted from the following two-line orbital elements,

1 32252U 07044A   14242.64958477 -.00000193  00000-0  00000+0 0  4967
2 32252 000.0481 283.7587 0003163 239.8514 201.0055 01.00272788 25289
Epoch (UTC): 30 August 2014 15:35:24
Eccentricity: 0.0003163
inclination: 0.0481°
perigee height: 35772 km
apogee height: 35799 km
right ascension of ascending node: 283.7587°
argument of perigee: 239.8514°
revolutions per day: 1.00272788
mean anomaly at epoch: 201.0055°
orbit number at epoch: 2528

The dashed part of the orbit path shows where the satellite is in the earth's shadow,  

DLR